Location: Ostrava
(49.8330°N, 18.2830°E)
Time: 16:01:42
(UTC+01:00)

NOAA 19 - Visible Passes

Search period start: 17 January 2017 00:00
Search period end: 27 January 2017 00:00
Orbit: 842 x 862 km, 99.1° (Epoch: 16 January)

Date Brightness Start Highest point End Pass type
(mag) Time Alt. Az. Time Alt. Az. Time Alt. Az.
17 Jan 7.4 04:53:33 10° N 04:54:01 12° N 04:54:01 12° N visible
18 Jan 7.4 04:41:55 10° N 04:42:30 13° N 04:42:30 13° N visible
19 Jan 7.4 04:30:18 10° N 04:30:59 13° N 04:30:59 13° N visible
20 Jan 7.4 04:18:43 10° N 04:19:29 14° N 04:19:29 14° N visible
21 Jan 7.4 04:07:09 10° N 04:07:58 14° N 04:07:58 14° N visible
22 Jan 7.5 03:55:38 10° N 03:56:28 14° N 03:56:28 14° N visible
23 Jan 7.5 03:44:08 10° N 03:44:57 15° N 03:44:57 15° N visible
23 Jan 7.3 05:26:29 10° NNW 05:27:00 11° NNW 05:27:00 11° NNW visible
24 Jan 7.6 03:32:39 10° NNE 03:33:27 14° NNE 03:33:27 14° NNE visible
24 Jan 7.2 05:14:38 10° NNW 05:15:29 13° NNW 05:15:29 13° NNW visible
25 Jan 7.7 03:21:12 10° NNE 03:21:57 14° NNE 03:21:57 14° NNE visible
25 Jan 7.2 05:02:53 10° N 05:03:59 14° NNW 05:03:59 14° NNW visible
26 Jan 7.7 03:09:46 10° NNE 03:10:27 14° NNE 03:10:27 14° NNE visible
26 Jan 7.1 04:51:13 10° N 04:52:29 15° NNW 04:52:29 15° NNW visible
